Location: Hamilton
(43.2500°N, 79.8330°W)
Time: 04:45:30
(UTC-04:00)

Amateur Radio Satellites - All Passes

Search period start: 26 September 2016 04:15
Search period end: 27 September 2016 04:15
Location: Hamilton, 43.2500°N, 79.8330°W

Satellite Date Start Highest point End Downlink Frequencies (MHz)
Time Altitude Azimuth
Oscar 19 26 Sep 04:16:58 04:20:41 20° 298° (WNW) 04:24:23 437.125/150
KKS-1 26 Sep 04:29:46 04:34:13 87° 79° (E) 04:38:43 437.445
AIST 2 26 Sep 04:32:43 04:36:25 34° 116° (ESE) 04:40:10 435.215
CUSAT 1 26 Sep 04:43:18 04:43:56 10° 48° (NE) 04:44:33 437.405
Gurwin Techsat 1B 26 Sep 04:57:18 05:00:59 19° 299° (WNW) 05:04:40 435.225
AIST 1 26 Sep 04:58:01 04:59:30 12° 83° (E) 05:00:59
CUBESAT XI-V 26 Sep 05:02:19 05:06:39 38° 70° (ENE) 05:11:02 437.345
YUBILEINY 26 Sep 05:03:42 05:12:06 48° 286° (WNW) 05:20:32 435.215
PCSat 26 Sep 05:04:13 05:09:09 37° 111° (ESE) 05:14:06 145.827
ITAMSAT 1 26 Sep 05:04:14 05:09:16 50° 290° (WNW) 05:14:18 435.822/435.867
STARS 26 Sep 05:09:32 05:13:56 73° 258° (WSW) 05:18:19 437.465
Cosmos 2504 26 Sep 05:22:52 05:30:20 79° 279° (W) 05:37:34 435.465 / 435.565
MOZHAYETS 4 26 Sep 05:27:12 05:30:18 18° 269° (W) 05:33:24
HORYU 2 26 Sep 05:40:48 05:44:11 21° 94° (E) 05:47:34 437.375
DANDE 26 Sep 05:49:06 05:54:00 16° 56° (ENE) 05:58:51 436.750
AO-7 26 Sep 06:03:05 06:11:11 60° 295° (WNW) 06:19:15 29.400- 29.500
AIST 2 26 Sep 06:11:24 06:14:56 27° 314° (NW) 06:18:31 435.215
CUSAT 1 26 Sep 06:20:40 06:28:15 46° 71° (ENE) 06:34:50 437.405
AO-85 26 Sep 06:22:38 06:26:36 37° 48° (NE) 06:30:18 145.980
RS-15 26 Sep 06:22:45 06:35:07 78° 241° (WSW) 06:47:12 29.354- 29.394
BRITE-PL 26 Sep 06:31:40 06:36:21 42° 97° (E) 06:40:38 437.365/2234.400
AIST 1 26 Sep 06:32:08 06:36:30 64° 280° (W) 06:40:52
GOMX 1 26 Sep 06:32:54 06:35:48 17° 90° (E) 06:38:35 467.674
NOAA 15 26 Sep 06:39:19 06:43:35 24° 94° (E) 06:47:49 137.62
CUBESAT XI-V 26 Sep 06:40:25 06:44:09 23° 267° (W) 06:47:55 437.345
PCSat 26 Sep 06:47:34 06:52:32 36° 310° (NW) 06:57:32 145.827
Cubesat XI-IV 26 Sep 06:47:50 06:52:06 24° 94° (E) 06:56:20 437.490
CUTE-I 26 Sep 06:48:38 06:52:57 24° 94° (E) 06:57:15 437.470
STRAND 1 26 Sep 06:51:32 06:55:52 29° 65° (ENE) 07:00:12 437.568
DOVE 4 26 Sep 07:05:11 07:07:34 15° 90° (E) 07:09:54 437.250
NOAA 18 26 Sep 07:11:46 07:16:35 31° 96° (E) 07:21:22 137.9125
HORYU 2 26 Sep 07:16:44 07:20:52 38° 290° (WNW) 07:24:59 437.375
Cosmos 2504 26 Sep 07:21:17 07:24:58 14° 300° (WNW) 07:28:37 435.465 / 435.565
DANDE 26 Sep 07:30:01 07:38:21 67° 76° (ENE) 07:46:21 436.750
GONETS M04 26 Sep 07:35:20 07:38:33 12° 72° (ENE) 07:41:44
LilacSat-2 26 Sep 07:35:44 07:39:35 76° 102° (ESE) 07:43:25 437.200
AO-7 26 Sep 07:58:04 08:02:15 15° 317° (NW) 08:06:28 29.400- 29.500
CUSAT 1 26 Sep 08:03:00 08:10:06 39° 273° (W) 08:16:17 437.405
AO-85 26 Sep 08:03:37 08:06:45 21° 248° (WSW) 08:09:45 145.980
GOMX 1 26 Sep 08:09:55 08:14:13 44° 289° (WNW) 08:18:16 467.674
BRITE-PL 26 Sep 08:10:43 08:14:31 22° 296° (WNW) 08:18:05 437.365/2234.400
O/OREOS (USA 219) 26 Sep 08:11:32 08:15:59 57° 109° (ESE) 08:20:30 437.305
NOAA 15 26 Sep 08:18:30 08:23:34 46° 291° (WNW) 08:28:34 137.62
Cubesat XI-IV 26 Sep 08:27:16 08:32:23 47° 291° (WNW) 08:37:29 437.490
CUTE-I 26 Sep 08:28:06 08:33:12 46° 290° (WNW) 08:38:17 437.470
STRAND 1 26 Sep 08:30:13 08:34:54 37° 263° (W) 08:39:38 437.568
CINEMA 3 26 Sep 08:30:52 08:34:36 32° 97° (E) 08:38:24 145.822/145.860
RS-15 26 Sep 08:37:36 08:45:30 20° 263° (W) 08:53:18 29.354- 29.394
Cosmos 2499 26 Sep 08:41:19 08:47:01 26° 84° (E) 08:52:38 435.465 / 435.565
DOVE 4 26 Sep 08:41:32 08:45:36 47° 288° (WNW) 08:49:34 437.250
NOAA 18 26 Sep 08:52:16 08:57:16 38° 293° (WNW) 09:02:16 137.9125
PRISM 26 Sep 08:57:43 09:01:43 47° 72° (ENE) 09:05:45 437.425
COMPASS 1 26 Sep 09:02:38 09:06:11 26° 95° (E) 09:09:42 437.405
HO-68 26 Sep 09:11:29 09:18:35 63° 102° (ESE) 09:25:39 435.675
DANDE 26 Sep 09:13:37 09:20:34 31° 275° (W) 09:27:18 436.750
ZACube-1 26 Sep 09:13:46 09:15:00 11° 89° (E) 09:16:14 437.345
Oscar 11 26 Sep 09:15:39 09:16:58 11° 89° (E) 09:18:16 145.826/435.025
CUTE 1.7 + AOD 2 26 Sep 09:21:43 09:26:02 88° 107° (ESE) 09:30:20 437.475
CANX-2 26 Sep 09:22:34 09:26:53 79° 284° (WNW) 09:31:11 2200.000
GONETS M04 26 Sep 09:24:49 09:33:31 67° 93° (E) 09:42:17
ANTELSAT 26 Sep 09:25:50 09:27:44 13° 62° (ENE) 09:29:39 437.575/2403.000
SEEDS 26 Sep 09:26:53 09:31:10 71° 101° (ESE) 09:35:24 437.485
TIGRISAT 26 Sep 09:45:37 09:48:39 19° 65° (ENE) 09:51:41 435.000
CUBEBUG 2 26 Sep 09:51:23 09:55:38 69° 101° (ESE) 09:59:59 437.445
O/OREOS (USA 219) 26 Sep 09:52:39 09:55:46 18° 308° (NW) 09:58:55 437.305
BEESAT 3 26 Sep 09:54:50 09:58:11 25° 45° (NE) 10:01:30 437.485
AAUSAT CUBESAT 2 26 Sep 09:55:15 09:59:28 79° 100° (E) 10:03:39 437.432
DELFI C3 26 Sep 09:58:47 10:00:30 12° 90° (E) 10:02:14 145.870
FUNcube-1 26 Sep 10:06:38 10:10:41 39° 98° (E) 10:14:47 145.935
CINEMA 3 26 Sep 10:08:24 10:11:37 22° 293° (WNW) 10:14:52 145.822/145.860
UWE-3 26 Sep 10:13:37 10:17:54 80° 101° (E) 10:22:18 435.000/436.395/437.385
UNISAT 6 26 Sep 10:24:17 10:28:26 51° 73° (ENE) 10:32:34 437.425
Cosmos 2499 26 Sep 10:32:39 10:39:39 55° 283° (WNW) 10:46:34 435.465 / 435.565
PRISM 26 Sep 10:34:47 10:37:16 15° 268° (W) 10:39:46 437.425
COMPASS 1 26 Sep 10:38:03 10:41:42 28° 291° (WNW) 10:45:18 437.405
POPSAT HIP 1 26 Sep 10:42:05 10:43:25 11° 61° (ENE) 10:44:45 437.405
BEESAT 2 26 Sep 10:46:05 10:49:54 39° 50° (NE) 10:53:41 435.950
ZACube-1 26 Sep 10:47:25 10:51:43 70° 285° (WNW) 10:56:04 437.345
Oscar 11 26 Sep 10:49:12 10:53:34 70° 285° (WNW) 10:57:53 145.826/435.025
NANOSAT C BR1 26 Sep 10:58:20 11:00:56 16° 64° (ENE) 11:03:32 145.865
ANTELSAT 26 Sep 10:59:41 11:03:56 65° 259° (W) 11:08:10 437.575/2403.000
HO-68 26 Sep 10:59:58 11:05:49 28° 302° (WNW) 11:11:39 435.675
SEEDS 26 Sep 11:04:36 11:06:16 12° 299° (WNW) 11:07:57 437.485
JAS-2 26 Sep 11:06:31 11:11:50 27° 58° (ENE) 11:17:38 435.910
QB50P2 26 Sep 11:18:42 11:22:21 29° 69° (ENE) 11:26:00 145.880/145.840
POLYITAN 1 26 Sep 11:20:57 11:24:35 29° 69° (ENE) 11:28:14 437.675
TIGRISAT 26 Sep 11:21:04 11:25:05 40° 262° (W) 11:29:07 435.000
GONETS M04 26 Sep 11:23:39 11:31:03 29° 294° (WNW) 11:38:31
HUMSAT D 26 Sep 11:24:27 11:28:39 59° 100° (E) 11:32:52 437.325/437.525
CUBEBUG 2 26 Sep 11:29:59 11:31:45 12° 298° (WNW) 11:33:31 437.445
DELFI C3 26 Sep 11:31:44 11:35:41 54° 286° (WNW) 11:39:35 145.870
BEESAT 3 26 Sep 11:32:16 11:35:54 34° 244° (WSW) 11:39:30 437.485
AAUSAT CUBESAT 2 26 Sep 11:33:19 11:34:18 11° 299° (WNW) 11:35:18 437.432
ESTCUBE 1 26 Sep 11:36:12 11:38:16 13° 89° (E) 11:40:19 437.505/2401.250
FUNcube-1 26 Sep 11:43:30 11:46:41 21° 294° (WNW) 11:49:55 145.935
UWE-3 26 Sep 11:52:37 11:53:47 11° 299° (WNW) 11:54:57 435.000/436.395/437.385
CUBEBUG 1 26 Sep 11:53:04 11:54:32 11° 89° (E) 11:56:00 437.445
DUCHIFAT 1 26 Sep 12:01:02 12:05:11 70° 75° (ENE) 12:09:21 145.980
QB50P1 26 Sep 12:01:03 12:05:15 80° 74° (ENE) 12:09:28 145.935-145.965
UNISAT 6 26 Sep 12:03:07 12:05:27 14° 269° (W) 12:07:48 437.425
BUGSAT 1 26 Sep 12:11:25 12:15:13 36° 70° (ENE) 12:18:58 437.445
POPSAT HIP 1 26 Sep 12:14:25 12:18:37 74° 259° (WSW) 12:22:49 437.405
Oscar 19 26 Sep 12:18:42 12:21:03 13° 57° (ENE) 12:23:24 437.125/150
BEESAT 2 26 Sep 12:24:27 12:27:28 20° 247° (WSW) 12:30:27 435.950
PHONESAT 2.4 26 Sep 12:31:53 12:34:19 23° 160° (SSE) 12:36:46 2401.200-2431.200
NANOSAT C BR1 26 Sep 12:32:13 12:36:17 48° 260° (W) 12:40:22 145.865
AISAT 26 Sep 12:34:37 12:38:22 26° 95° (E) 12:42:03 437.250
SPROUT 26 Sep 12:41:25 12:44:10 17° 92° (E) 12:46:53 437.525
JAS-2 26 Sep 12:49:53 12:56:12 64° 260° (W) 13:03:24 435.910
UKube-1 26 Sep 12:51:42 12:54:44 18° 93° (E) 12:57:45 .
AIST 2 26 Sep 12:52:44 12:56:34 33° 48° (NE) 13:00:24 435.215
QB50P2 26 Sep 12:54:38 12:58:08 25° 265° (W) 13:01:38 145.880/145.840
POLYITAN 1 26 Sep 12:56:54 13:00:22 25° 265° (W) 13:03:51 437.675
M-CUBED/EXP-1 PRIME 26 Sep 12:59:47 13:02:15 20° 100° (E) 13:04:42 437.505
Gurwin Techsat 1B 26 Sep 13:01:16 13:04:23 16° 59° (ENE) 13:07:31 435.225
HUMSAT D 26 Sep 13:01:34 13:03:48 14° 297° (WNW) 13:06:03 437.325/437.525
ESTCUBE 1 26 Sep 13:11:00 13:15:31 65° 287° (WNW) 13:20:00 437.505/2401.250
DX 1 26 Sep 13:16:01 13:20:11 43° 99° (E) 13:24:18 434.975-435.025
YUBILEINY 26 Sep 13:16:33 13:22:41 20° 61° (ENE) 13:28:46 435.215
VELOX 1 26 Sep 13:17:57 13:22:23 74° 103° (ESE) 13:26:45 145.980
AO-7 26 Sep 13:24:34 13:27:42 13° 40° (NE) 13:30:51 29.400- 29.500
CUBEBUG 1 26 Sep 13:26:57 13:31:17 67° 286° (WNW) 13:35:33 437.445
50 SAT 26 Sep 13:32:59 13:36:39 65° 285° (WNW) 13:40:17 437.505
DUCHIFAT 1 26 Sep 13:40:40 13:41:20 10° 271° (W) 13:41:59 145.980
BUGSAT 1 26 Sep 13:47:45 13:50:42 19° 266° (W) 13:53:37 437.445
PCSat 26 Sep 13:50:38 13:55:44 39° 51° (NE) 14:00:47 145.827
Oscar 19 26 Sep 13:54:24 13:59:36 89° 74° (ENE) 14:04:51 437.125/150
AUBIESAT-1 26 Sep 13:57:42 14:01:02 83° 289° (WNW) 14:04:19 437.475
PHONESAT 2.4 26 Sep 14:07:17 14:10:09 48° 177° (S) 14:13:02 2401.200-2431.200
TISAT 1 26 Sep 14:07:28 14:11:04 28° 96° (E) 14:14:40 437.305
AISAT 26 Sep 14:10:59 14:14:49 30° 292° (WNW) 14:18:37 437.250
SPROUT 26 Sep 14:16:16 14:20:20 44° 288° (WNW) 14:24:22 437.525
UKube-1 26 Sep 14:26:53 14:30:57 41° 290° (WNW) 14:34:59 .
AIST 2 26 Sep 14:31:24 14:34:57 27° 246° (WSW) 14:38:30 435.215
M-CUBED/EXP-1 PRIME 26 Sep 14:34:11 14:36:47 22° 297° (WNW) 14:39:22 437.505
Gurwin Techsat 1B 26 Sep 14:38:23 14:43:41 77° 257° (WSW) 14:49:02 435.225
ITAMSAT 1 26 Sep 14:44:19 14:49:01 37° 67° (ENE) 14:53:45 435.822/435.867
DX 1 26 Sep 14:53:00 14:56:04 19° 296° (WNW) 14:59:06 434.975-435.025
VELOX 1 26 Sep 14:56:25 14:58:14 12° 300° (WNW) 15:00:03 145.980
SO-50 26 Sep 14:59:44 15:01:16 11° 107° (ESE) 15:02:48 436.795
Cosmos 2491 26 Sep 15:07:59 15:16:10 46° 88° (E) 15:24:24 435.465 / 435.565
AO-7 26 Sep 15:10:38 15:18:32 50° 62° (ENE) 15:26:26 29.400- 29.500
ITUPSAT 1 26 Sep 15:11:36 15:15:42 27° 95° (E) 15:19:47 437.325
YUBILEINY 26 Sep 15:12:00 15:20:46 90° 309° (NW) 15:29:28 435.215
Cosmos 2504 26 Sep 15:13:14 15:20:02 38° 73° (ENE) 15:27:11 435.465 / 435.565
SWISSCUBE 26 Sep 15:25:19 15:29:53 42° 99° (E) 15:34:26 437.505
PCSat 26 Sep 15:34:13 15:39:02 33° 250° (WSW) 15:43:48 145.827
Oscar 19 26 Sep 15:38:00 15:39:36 11° 272° (W) 15:41:13 437.125/150
BEESAT 26 Sep 15:38:25 15:43:06 51° 100° (E) 15:47:45 436.000
TISAT 1 26 Sep 15:43:10 15:46:38 26° 293° (WNW) 15:50:04 437.305
PHONESAT 2.4 26 Sep 15:43:18 15:46:04 35° 193° (SSW) 15:48:49 2401.200-2431.200
MOZHAYETS 4 26 Sep 15:45:16 15:46:02 10° 88° (E) 15:46:48
KKS-1 26 Sep 16:20:59 16:23:34 15° 91° (E) 16:26:08 437.445
ITAMSAT 1 26 Sep 16:24:06 16:28:32 29° 265° (W) 16:33:01 435.822/435.867
SO-50 26 Sep 16:36:11 16:41:02 89° 152° (SSE) 16:45:51 436.795
AIST 1 26 Sep 16:38:17 16:42:11 32° 75° (ENE) 16:46:01
HORYU 2 26 Sep 16:39:54 16:43:21 23° 65° (ENE) 16:46:49 437.375
O/OREOS (USA 219) 26 Sep 16:42:13 16:45:12 17° 52° (NE) 16:48:10 437.305
ITUPSAT 1 26 Sep 16:49:13 16:53:34 34° 292° (WNW) 16:57:53 437.325
STARS 26 Sep 16:58:43 17:01:46 18° 93° (E) 17:04:48 437.465
SWISSCUBE 26 Sep 17:03:39 17:07:25 23° 296° (WNW) 17:11:11 437.505
AO-7 26 Sep 17:03:47 17:11:25 40° 261° (W) 17:19:08 29.400- 29.500
NOAA 18 26 Sep 17:04:05 17:04:44 10° 53° (NE) 17:05:22 137.9125
Cosmos 2491 26 Sep 17:04:52 17:13:03 42° 288° (WNW) 17:21:21 435.465 / 435.565
Cosmos 2504 26 Sep 17:06:35 17:13:25 42° 271° (W) 17:20:40 435.465 / 435.565
YUBILEINY 26 Sep 17:10:49 17:16:17 19° 283° (WNW) 17:21:45 435.215
BEESAT 26 Sep 17:17:06 17:20:31 20° 297° (WNW) 17:23:55 436.000
MOZHAYETS 4 26 Sep 17:19:06 17:23:47 82° 284° (WNW) 17:28:25
PHONESAT 2.4 26 Sep 17:20:29 17:21:42 12° 208° (SSW) 17:22:53 2401.200-2431.200
GOMX 1 26 Sep 17:40:44 17:45:09 27° 67° (ENE) 17:49:25 467.674
BRITE-PL 26 Sep 17:41:52 17:47:26 58° 73° (ENE) 17:52:56 437.365/2234.400
KKS-1 26 Sep 17:56:08 18:00:26 53° 288° (WNW) 18:04:44 437.445
HO-68 26 Sep 17:59:49 18:01:38 11° 46° (NE) 18:03:26 435.675
NOAA 15 26 Sep 18:00:05 18:05:04 43° 68° (ENE) 18:10:05 137.62
Cubesat XI-IV 26 Sep 18:10:38 18:15:37 43° 69° (ENE) 18:20:38 437.490
DOVE 4 26 Sep 18:10:47 18:14:32 22° 66° (ENE) 18:18:09 437.250
CUTE-I 26 Sep 18:11:17 18:16:16 44° 69° (ENE) 18:21:18 437.470
HORYU 2 26 Sep 18:15:39 18:19:43 36° 262° (W) 18:23:48 437.375
AIST 1 26 Sep 18:16:19 18:19:33 21° 273° (W) 18:22:45
LilacSat-2 26 Sep 18:18:36 18:22:09 41° 72° (ENE) 18:25:42 437.200
SO-50 26 Sep 18:18:57 18:22:10 17° 323° (NW) 18:25:21 436.795
O/OREOS (USA 219) 26 Sep 18:20:30 18:25:04 63° 251° (WSW) 18:29:35 437.305
STARS 26 Sep 18:34:11 18:38:19 42° 289° (WNW) 18:42:26 437.465
CUBESAT XI-V 26 Sep 18:34:36 18:39:20 82° 102° (ESE) 18:44:00 437.345
NOAA 18 26 Sep 18:38:57 18:44:21 65° 72° (ENE) 18:49:46 137.9125
RS-15 26 Sep 18:42:21 18:47:33 14° 93° (E) 18:52:48 29.354- 29.394
MOZHAYETS 4 26 Sep 18:59:44 19:00:09 10° 302° (WNW) 19:00:34
GOMX 1 26 Sep 19:17:50 19:22:59 44° 262° (W) 19:27:58 467.674
BRITE-PL 26 Sep 19:21:53 19:26:11 22° 269° (W) 19:30:28 437.365/2234.400
CUSAT 1 26 Sep 19:22:24 19:28:03 39° 88° (E) 19:34:51 437.405
CINEMA 3 26 Sep 19:33:20 19:37:24 35° 71° (ENE) 19:41:20 145.822/145.860
GONETS M04 26 Sep 19:34:08 19:42:04 35° 69° (ENE) 19:49:52
NOAA 15 26 Sep 19:40:37 19:44:59 26° 266° (W) 19:49:23 137.62
HO-68 26 Sep 19:40:52 19:47:45 52° 66° (ENE) 19:54:38 435.675
DOVE 4 26 Sep 19:47:05 19:51:57 47° 261° (W) 19:56:36 437.250
Cubesat XI-IV 26 Sep 19:51:28 19:55:50 26° 266° (W) 20:00:15 437.490
CUTE-I 26 Sep 19:52:11 19:56:29 25° 266° (W) 20:00:50 437.470
LilacSat-2 26 Sep 19:54:37 19:56:39 14° 269° (W) 19:58:41 437.200
COMPASS 1 26 Sep 19:54:40 19:57:46 21° 66° (ENE) 20:00:53 437.405
ZACube-1 26 Sep 20:12:14 20:12:33 10° 60° (ENE) 20:12:52 437.345
Oscar 11 26 Sep 20:12:15 20:13:22 11° 60° (ENE) 20:14:28 145.826/435.025
CUBESAT XI-V 26 Sep 20:14:06 20:16:01 12° 300° (WNW) 20:17:56 437.345
CUTE 1.7 + AOD 2 26 Sep 20:14:58 20:19:09 69° 76° (ENE) 20:23:25 437.475
CANX-2 26 Sep 20:15:53 20:20:07 82° 78° (ENE) 20:24:24 2200.000
SEEDS 26 Sep 20:19:15 20:23:19 53° 74° (ENE) 20:27:28 437.485
Cosmos 2499 26 Sep 20:20:46 20:28:06 54° 77° (ENE) 20:35:57 435.465 / 435.565
NOAA 18 26 Sep 20:21:53 20:25:28 18° 269° (W) 20:29:03 137.9125
STRAND 1 26 Sep 20:38:58 20:44:08 69° 103° (ESE) 20:49:16 437.568
DANDE 26 Sep 20:39:15 20:44:09 59° 93° (E) 20:50:42 436.750
AO-85 26 Sep 20:40:16 20:42:00 12° 107° (ESE) 20:43:42 145.980
RS-15 26 Sep 20:45:57 20:57:19 66° 115° (ESE) 21:09:16 29.354- 29.394
AAUSAT CUBESAT 2 26 Sep 20:46:03 20:50:07 57° 73° (ENE) 20:54:14 437.432
ISS 26 Sep 20:50:21 20:52:46 19° 134° (SE) 20:55:13 145.825
CUBEBUG 2 26 Sep 20:50:25 20:54:34 63° 75° (ENE) 20:58:42 437.445
FUNcube-1 26 Sep 21:03:19 21:07:01 33° 70° (ENE) 21:10:44 145.935
CUSAT 1 26 Sep 21:04:08 21:10:01 41° 291° (WNW) 21:17:05 437.405
CINEMA 3 26 Sep 21:11:04 21:14:36 22° 266° (W) 21:18:03 145.822/145.860
UWE-3 26 Sep 21:11:32 21:15:40 71° 75° (ENE) 21:19:48 435.000/436.395/437.385
COMPASS 1 26 Sep 21:29:14 21:33:05 36° 263° (W) 21:36:59 437.405
HO-68 26 Sep 21:29:26 21:35:42 32° 265° (W) 21:42:00 435.675
GONETS M04 26 Sep 21:30:44 21:39:14 55° 270° (W) 21:47:39
ZACube-1 26 Sep 21:44:03 21:48:12 80° 258° (WSW) 21:52:22 437.345
Oscar 11 26 Sep 21:44:32 21:48:49 81° 256° (WSW) 21:53:10 145.826/435.025
CUTE 1.7 + AOD 2 26 Sep 21:54:33 21:55:29 11° 272° (W) 21:56:25 437.475
SEEDS 26 Sep 21:57:13 21:59:22 14° 270° (W) 22:01:32 437.485
PRISM 26 Sep 22:13:09 22:17:18 67° 102° (ESE) 22:21:22 437.425
Cosmos 2499 26 Sep 22:14:30 22:20:51 31° 275° (W) 22:27:35 435.465 / 435.565
HUMSAT D 26 Sep 22:16:35 22:20:27 44° 72° (ENE) 22:24:23 437.325/437.525
AO-85 26 Sep 22:16:37 22:21:50 84° 123° (ESE) 22:26:44 145.980
DELFI C3 26 Sep 22:17:54 22:21:54 85° 255° (WSW) 22:25:57 145.870
STRAND 1 26 Sep 22:19:31 22:22:44 17° 300° (WNW) 22:25:57 437.568
DANDE 26 Sep 22:23:33 22:27:45 22° 300° (WNW) 22:32:49 436.750
AAUSAT CUBESAT 2 26 Sep 22:24:08 22:25:57 13° 270° (W) 22:27:48 437.432
ISS 26 Sep 22:25:48 22:29:01 56° 332° (NNW) 22:32:15 145.825
CUBEBUG 2 26 Sep 22:30:16 22:31:37 11° 270° (W) 22:32:56 437.445
ESTCUBE 1 26 Sep 22:36:50 22:39:21 15° 62° (ENE) 22:41:53 437.505/2401.250
FUNcube-1 26 Sep 22:40:12 22:43:21 21° 267° (W) 22:46:30 145.935
CUBEBUG 1 26 Sep 22:50:11 22:52:06 13° 61° (ENE) 22:54:01 437.445
ANTELSAT 26 Sep 22:50:26 22:53:57 23° 94° (E) 22:57:32 437.575/2403.000
RS-15 26 Sep 22:59:13 23:10:27 47° 321° (NW) 23:22:14 29.354- 29.394
TIGRISAT 26 Sep 23:10:57 23:15:00 35° 98° (E) 23:19:06 435.000
AUBIESAT-1 26 Sep 23:11:55 23:13:59 14° 60° (ENE) 23:15:59 437.475
SO-50 26 Sep 23:27:17 23:30:27 18° 37° (NE) 23:33:34 436.795
AISAT 26 Sep 23:32:52 23:36:40 28° 67° (ENE) 23:40:27 437.250
SPROUT 26 Sep 23:36:25 23:38:57 16° 63° (ENE) 23:41:30 437.525
M-CUBED/EXP-1 PRIME 26 Sep 23:46:09 23:50:01 39° 67° (ENE) 23:53:37 437.505
QB50P1 26 Sep 23:46:45 23:48:17 12° 90° (E) 23:49:50 145.935-145.965
UKube-1 26 Sep 23:47:22 23:50:25 19° 64° (ENE) 23:53:30 .
PRISM 26 Sep 23:50:22 23:52:02 12° 299° (WNW) 23:53:41 437.425
UNISAT 6 26 Sep 23:50:56 23:55:20 80° 285° (WNW) 23:59:49 437.425
HUMSAT D 26 Sep 23:53:53 23:56:20 15° 269° (W) 23:58:47 437.325/437.525
JAS-2 26 Sep 23:58:46 00:04:48 23° 88° (E) 00:10:37 435.910
POPSAT HIP 1 26 Sep 23:59:10 00:01:50 16° 92° (E) 00:04:28 437.405
AO-85 26 Sep 23:59:19 00:02:50 19° 321° (NW) 00:06:13 145.980
ISS 27 Sep 00:03:28 00:06:00 20° 351° (N) 00:08:33 145.825
50 SAT 27 Sep 00:10:15 00:13:49 59° 75° (ENE) 00:17:26 437.505
ESTCUBE 1 27 Sep 00:11:09 00:15:38 64° 259° (W) 00:20:10 437.505/2401.250
DX 1 27 Sep 00:12:16 00:16:24 43° 71° (ENE) 00:20:34 434.975-435.025
NANOSAT C BR1 27 Sep 00:15:49 00:19:13 23° 95° (E) 00:22:35 145.865
VELOX 1 27 Sep 00:15:49 00:20:16 74° 74° (ENE) 00:24:43 145.980
CUBEBUG 1 27 Sep 00:23:23 00:27:48 73° 257° (WSW) 00:32:14 437.445
ANTELSAT 27 Sep 00:26:45 00:30:43 34° 290° (WNW) 00:34:46 437.575/2403.000
QB50P2 27 Sep 00:37:33 00:41:37 46° 99° (E) 00:45:41 145.880/145.840
POLYITAN 1 27 Sep 00:39:46 00:43:50 46° 99° (E) 00:47:54 437.675
AUBIESAT-1 27 Sep 00:44:05 00:48:07 55° 254° (WSW) 00:51:53 437.475
TIGRISAT 27 Sep 00:48:04 00:51:30 23° 293° (WNW) 00:55:00 435.000
TISAT 1 27 Sep 01:00:11 01:03:36 25° 67° (ENE) 01:07:02 437.305
SO-50 27 Sep 01:06:54 01:11:31 78° 237° (WSW) 01:15:58 436.795
AISAT 27 Sep 01:09:09 01:13:03 29° 264° (W) 01:16:57 437.250
SPROUT 27 Sep 01:10:19 01:14:29 52° 260° (W) 01:18:39 437.525
Cosmos 2491 27 Sep 01:17:10 01:24:03 24° 63° (ENE) 01:30:53 435.465 / 435.565
RS-15 27 Sep 01:17:21 01:27:08 27° 354° (N) 01:37:06 29.354- 29.394
DUCHIFAT 1 27 Sep 01:19:30 01:23:41 73° 285° (WNW) 01:27:52 145.980
QB50P1 27 Sep 01:20:18 01:24:28 62° 286° (WNW) 01:28:37 145.935-145.965
M-CUBED/EXP-1 PRIME 27 Sep 01:21:41 01:24:36 18° 260° (W) 01:27:24 437.505
UKube-1 27 Sep 01:22:03 01:26:10 43° 261° (W) 01:30:18 .
BEESAT 3 27 Sep 01:23:31 01:26:51 27° 115° (ESE) 01:30:12 437.485
BUGSAT 1 27 Sep 01:26:58 01:30:55 54° 100° (E) 01:34:52 437.445
POPSAT HIP 1 27 Sep 01:33:49 01:37:50 45° 288° (WNW) 01:41:51 437.405
ISS 27 Sep 01:40:41 01:43:19 21° 11° (NNE) 01:45:56 145.825
JAS-2 27 Sep 01:42:36 01:50:30 78° 287° (WNW) 01:58:05 435.910
DX 1 27 Sep 01:49:45 01:52:47 18° 267° (W) 01:55:50 434.975-435.025
NANOSAT C BR1 27 Sep 01:51:16 01:54:57 31° 291° (WNW) 01:58:39 145.865
VELOX 1 27 Sep 01:55:59 01:57:13 11° 271° (W) 01:58:27 145.980
Oscar 19 27 Sep 02:05:22 02:09:50 29° 95° (E) 02:14:14 437.125/150
QB50P2 27 Sep 02:14:20 02:17:05 17° 296° (WNW) 02:19:49 145.880/145.840
BEESAT 2 27 Sep 02:16:01 02:19:49 50° 119° (ESE) 02:23:41 435.950
POLYITAN 1 27 Sep 02:16:34 02:19:17 17° 296° (WNW) 02:22:01 437.675
ITUPSAT 1 27 Sep 02:19:13 02:23:33 36° 68° (ENE) 02:27:53 437.325
YUBILEINY 27 Sep 02:20:31 02:26:38 22° 78° (ENE) 02:32:44 435.215
SWISSCUBE 27 Sep 02:32:35 02:37:12 54° 72° (ENE) 02:41:52 437.505
TISAT 1 27 Sep 02:35:28 02:39:08 29° 263° (W) 02:42:49 437.305
BEESAT 27 Sep 02:45:37 02:50:19 66° 73° (ENE) 02:55:03 436.000
MOZHAYETS 4 27 Sep 02:47:49 02:49:43 12° 60° (ENE) 02:51:39
Gurwin Techsat 1B 27 Sep 02:53:41 02:58:39 39° 98° (E) 03:03:35 435.225
ITAMSAT 1 27 Sep 02:58:18 02:59:52 11° 88° (E) 03:01:26 435.822/435.867
BEESAT 3 27 Sep 03:00:58 03:04:25 29° 312° (NW) 03:07:56 437.485
BUGSAT 1 27 Sep 03:03:50 03:05:51 14° 297° (WNW) 03:07:53 437.445
Cosmos 2491 27 Sep 03:13:03 03:21:55 79° 266° (W) 03:30:43 435.465 / 435.565
AO-7 27 Sep 03:14:10 03:17:05 12° 86° (E) 03:20:00 29.400- 29.500
ISS 27 Sep 03:16:58 03:20:14 66° 29° (NNE) 03:23:31 145.825
KKS-1 27 Sep 03:20:07 03:23:01 17° 63° (ENE) 03:25:56 437.445
JAS-2 27 Sep 03:29:12 03:34:16 19° 307° (NW) 03:39:16 435.910
RS-15 27 Sep 03:33:31 03:44:37 36° 29° (NNE) 03:55:38 29.354- 29.394
Oscar 19 27 Sep 03:44:29 03:49:11 37° 292° (WNW) 03:53:51 437.125/150
Cosmos 2504 27 Sep 03:54:10 04:00:19 29° 85° (E) 04:06:16 435.465 / 435.565
BEESAT 2 27 Sep 03:54:59 03:57:54 19° 318° (NW) 04:00:50 435.950
STARS 27 Sep 03:56:28 03:59:38 20° 64° (ENE) 04:02:48 437.465
ITUPSAT 1 27 Sep 03:57:28 04:01:26 26° 265° (W) 04:05:25 437.325
CUBESAT XI-V 27 Sep 04:05:14 04:06:33 11° 59° (ENE) 04:07:53 437.345
